,,,PA_Meas_PMT16A,,PR_Meas_QMR101_102,,RH_Meas_QMH101,,SR_Meas_QMS101,,TA_Meas_QMH101,,GenWind,,GenWind,
date,time,status,PA,status,PR,status,RH,status,SR,status,TA,status,DirAvg,status,SpdAvg,
2009-05-01, 00:00:04,VALID,1004.39,VALID,0,VALID,89.0061,VALID,0,VALID,26.0206,VALID,20,VALID,0.603906,
2009-05-01, 00:01:04,VALID,1004.33,VALID,0,VALID,88.8307,VALID,0,VALID,26.0596,VALID,57,VALID,1.11289,
2009-05-01, 00:02:04,VALID,1004.32,VALID,0,VALID,88.6552,VALID,0,VALID,26.0985,VALID,19,VALID,0.505469,
2009-05-01, 00:03:04,VALID,1004.3,VALID,0,VALID,88.6247,VALID,0,VALID,26.0791,VALID,30,VALID,0.977734,
2009-05-01, 00:04:04,VALID,1004.31,VALID,0,VALID,88.6247,VALID,0,VALID,26.0791,VALID,40,VALID,0.755078,
2009-05-01, 00:05:04,VALID,1004.29,VALID,0,VALID,88.5484,VALID,0,VALID,26.0985,VALID,19,VALID,0.516406,
2009-05-01, 00:06:04,VALID,1004.29,VALID,0,VALID,88.5332,VALID,0,VALID,26.0791,VALID,49,VALID,0.582422,
2009-05-01, 00:07:04,VALID,1004.29,VALID,0,VALID,88.5637,VALID,0,VALID,26.0596,VALID,53,VALID,0.352734,
2009-05-01, 00:08:04,VALID,1004.25,VALID,0,VALID,88.5255,VALID,0,VALID,26.1005,VALID,32,VALID,0.947656,
2009-05-01, 00:09:04,VALID,1004.27,VALID,0,VALID,88.3195,VALID,0,VALID,26.118,VALID,48,VALID,0.476563,
2009-05-01, 00:10:04,VALID,1004.26,VALID,0,VALID,88.2738,VALID,0,VALID,26.0966,VALID,48,VALID,0.324219,
2009-05-01, 00:11:04,VALID,1004.23,VALID,0,VALID,88.2509,VALID,0,VALID,26.0791,VALID,38,VALID,0.425,
2009-05-01, 00:12:04,VALID,1004.21,VALID,0,VALID,88.3348,VALID,0,VALID,26.0576,VALID,31,VALID,0.423047,
2009-05-01, 00:13:04,VALID,1004.22,VALID,0,VALID,88.4874,VALID,0,VALID,26.0791,VALID,23,VALID,0.938281,
2009-05-01, 00:14:04,VALID,1004.2,VALID,0,VALID,88.4035,VALID,0,VALID,26.118,VALID,25,VALID,0.448047,
2009-05-01, 00:15:04,VALID,1004.2,VALID,0,VALID,88.3882,VALID,0,VALID,26.118,VALID,25,VALID,0.455859,
2009-05-01, 00:16:04,VALID,1004.23,VALID,0,VALID,88.4416,VALID,0,VALID,26.118,VALID,354,VALID,0.698828,
2009-05-01, 00:17:04,VALID,1004.21,VALID,0,VALID,88.4569,VALID,0,VALID,26.1395,VALID,20,VALID,0.841016,
2009-05-01, 00:18:04,VALID,1004.23,VALID,0,VALID,88.3501,VALID,0,VALID,26.157,VALID,357,VALID,0.748828,
2009-05-01, 00:19:04,VALID,1004.24,VALID,0,VALID,88.167,VALID,0,VALID,26.1745,VALID,8,VALID,0.430469,
2009-05-01, 00:20:04,VALID,1004.25,VALID,0,VALID,87.961,VALID,0,VALID,26.2329,VALID,12,VALID,0.721484,
2009-05-01, 00:21:04,VALID,1004.22,VALID,0,VALID,87.7703,VALID,0,VALID,26.2739,VALID,29,VALID,0.38125,
2009-05-01, 00:22:04,VALID,1004.18,VALID,0,VALID,87.7398,VALID,0,VALID,26.2739,VALID,29,VALID,0.457031,
2009-05-01, 00:23:04,VALID,1004.17,VALID,0,VALID,87.6482,VALID,0,VALID,26.2524,VALID,29,VALID,0.148047,
2009-05-01, 00:24:04,VALID,1004.16,VALID,0,VALID,87.6711,VALID,0,VALID,26.2544,VALID,29,VALID,0.292188,
2009-05-01, 00:25:04,VALID,1004.14,VALID,0,VALID,87.6329,VALID,0,VALID,26.1959,VALID,29,VALID,0.252734,
2009-05-01, 00:26:04,VALID,1004.18,VALID,0,VALID,87.7932,VALID,0,VALID,26.157,VALID,29,VALID,0,
2009-05-01, 00:27:04,VALID,1004.17,VALID,0,VALID,87.9457,VALID,0,VALID,26.1005,VALID,29,VALID,0.251953,
2009-05-01, 00:28:04,VALID,1004.18,VALID,0,VALID,88.1975,VALID,0,VALID,26.0012,VALID,29,VALID,0.253125,
2009-05-01, 00:29:04,VALID,1004.15,VALID,0,VALID,88.4645,VALID,0,VALID,25.9252,VALID,29,VALID,0.275781,
2009-05-01, 00:30:04,VALID,1004.13,VALID,0,VALID,88.8536,VALID,0,VALID,25.8064,VALID,29,VALID,0,
2009-05-01, 00:31:04,VALID,1004.13,VALID,0,VALID,89.2198,VALID,0,VALID,25.748,VALID,29,VALID,0,
2009-05-01, 00:32:04,VALID,1004.11,VALID,0,VALID,89.5859,VALID,0,VALID,25.6895,VALID,29,VALID,0.314453,
2009-05-01, 00:33:04,VALID,1004.09,VALID,0,VALID,89.8453,VALID,0,VALID,25.6506,VALID,29,VALID,0.526172,
2009-05-01, 00:34:04,VALID,1004.07,VALID,0,VALID,90.1657,VALID,0,VALID,25.5921,VALID,29,VALID,0.284766,
2009-05-01, 00:35:04,VALID,1004.07,VALID,0,VALID,90.4633,VALID,0,VALID,25.5123,VALID,29,VALID,0.396875,
2009-05-01, 00:36:04,VALID,1004.06,VALID,0,VALID,90.9363,VALID,0,VALID,25.5142,VALID,27,VALID,0.5125,
2009-05-01, 00:37:04,VALID,1004.03,VALID,0,VALID,91.0736,VALID,0,VALID,25.5142,VALID,27,VALID,0.219922,
2009-05-01, 00:38:04,VALID,1004,VALID,0,VALID,91.1117,VALID,0,VALID,25.4948,VALID,27,VALID,0.501953,
2009-05-01, 00:39:04,VALID,1003.99,VALID,0,VALID,91.0736,VALID,0,VALID,25.4948,VALID,23,VALID,0.382031,
2009-05-01, 00:40:04,VALID,1004,VALID,0,VALID,91.0202,VALID,0,VALID,25.4753,VALID,23,VALID,0.429688,
2009-05-01, 00:41:04,VALID,1003.98,VALID,0,VALID,91.3253,VALID,0,VALID,25.4363,VALID,359,VALID,0.726953,
2009-05-01, 00:42:04,VALID,1003.94,VALID,0,VALID,91.5389,VALID,0,VALID,25.4558,VALID,14,VALID,0.942187,
2009-05-01, 00:43:04,VALID,1003.97,VALID,0,VALID,91.3558,VALID,0,VALID,25.4948,VALID,27,VALID,0.447266,
2009-05-01, 00:44:04,VALID,1003.95,VALID,0,VALID,91.2109,VALID,0,VALID,25.4753,VALID,27,VALID,0.432813,
2009-05-01, 00:45:04,VALID,1003.98,VALID,0,VALID,91.2338,VALID,0,VALID,25.4363,VALID,25,VALID,0.676953,
2009-05-01, 00:46:04,VALID,1003.91,VALID,0,VALID,91.4169,VALID,0,VALID,25.4169,VALID,25,VALID,0.432422,
2009-05-01, 00:47:04,VALID,1003.99,VALID,0,VALID,91.5466,VALID,0,VALID,25.4169,VALID,358,VALID,0.662109,
2009-05-01, 00:48:04,VALID,1003.99,VALID,0,VALID,91.5084,VALID,0,VALID,25.3974,VALID,358,VALID,0.402734,
2009-05-01, 00:49:04,VALID,1003.98,VALID,0,VALID,91.6381,VALID,0,VALID,25.3584,VALID,360,VALID,0.675,
2009-05-01, 00:50:04,VALID,1004,VALID,0,VALID,91.8594,VALID,0,VALID,25.3955,VALID,34,VALID,0.533594,
2009-05-01, 00:51:04,VALID,1004.01,VALID,0,VALID,91.8441,VALID,0,VALID,25.4363,VALID,24,VALID,0.326172,
2009-05-01, 00:52:04,VALID,1004,VALID,0,VALID,91.5389,VALID,0,VALID,25.4149,VALID,24,VALID,0.333203,
2009-05-01, 00:53:04,VALID,1003.94,VALID,0,VALID,91.4703,VALID,0.100563,VALID,25.4169,VALID,24,VALID,0.157031,
2009-05-01, 00:54:04,VALID,1003.92,VALID,0,VALID,91.4932,VALID,0,VALID,25.3974,VALID,24,VALID,0.284375,
2009-05-01, 00:55:04,VALID,1003.9,VALID,0,VALID,91.5313,VALID,0,VALID,25.3974,VALID,24,VALID,0.441797,
2009-05-01, 00:56:04,VALID,1003.85,VALID,0,VALID,91.6381,VALID,0,VALID,25.376,VALID,60,VALID,0.410547,
2009-05-01, 00:57:04,VALID,1003.79,VALID,0,VALID,91.4855,VALID,0,VALID,25.3798,VALID,39,VALID,0.553906,
2009-05-01, 00:58:04,VALID,1003.81,VALID,0,VALID,91.5847,VALID,0,VALID,25.3779,VALID,32,VALID,0.376172,
2009-05-01, 00:59:04,VALID,1003.77,VALID,0,VALID,91.6457,VALID,0,VALID,25.3974,VALID,64,VALID,0.349609,
2009-05-01, 01:00:04,VALID,1003.76,VALID,0,VALID,91.4779,VALID,0,VALID,25.3974,VALID,35,VALID,0.630859,
2009-05-01, 01:01:04,VALID,1003.77,VALID,0,VALID,91.6839,VALID,0,VALID,25.3974,VALID,30,VALID,0.932813,
2009-05-01, 01:02:04,VALID,1003.75,VALID,0,VALID,91.661,VALID,0,VALID,25.4558,VALID,29,VALID,0.925391,
2009-05-01, 01:03:04,VALID,1003.76,VALID,0,VALID,91.4932,VALID,0,VALID,25.5337,VALID,24,VALID,0.363672,
2009-05-01, 01:04:04,VALID,1003.78,VALID,0,VALID,91.0736,VALID,0,VALID,25.5727,VALID,24,VALID,0.571484,
2009-05-01, 01:05:04,VALID,1003.81,VALID,0,VALID,91.0812,VALID,0,VALID,25.6311,VALID,26,VALID,0.980469,
2009-05-01, 01:06:04,VALID,1003.81,VALID,0,VALID,90.7684,VALID,0,VALID,25.7285,VALID,32,VALID,0.461328,
2009-05-01, 01:07:04,VALID,1003.81,VALID,0,VALID,90.3793,VALID,0,VALID,25.748,VALID,26,VALID,0.701563,
2009-05-01, 01:08:04,VALID,1003.82,VALID,0,VALID,90.2954,VALID,0,VALID,25.8064,VALID,21,VALID,0.80625,
2009-05-01, 01:09:04,VALID,1003.88,VALID,0,VALID,90.0666,VALID,0,VALID,25.8453,VALID,71,VALID,0.578906,
2009-05-01, 01:10:04,VALID,1003.89,VALID,0,VALID,89.7996,VALID,0,VALID,25.8823,VALID,60,VALID,0.466406,
2009-05-01, 01:11:04,VALID,1003.9,VALID,0,VALID,89.5936,VALID,0,VALID,25.9018,VALID,43,VALID,0.445703,
2009-05-01, 01:12:04,VALID,1003.92,VALID,0,VALID,89.502,VALID,0,VALID,25.9427,VALID,38,VALID,0.952734,
2009-05-01, 01:13:04,VALID,1003.91,VALID,0,VALID,89.2808,VALID,0,VALID,25.9622,VALID,40,VALID,0.319922,
2009-05-01, 01:14:04,VALID,1003.92,VALID,0,VALID,89.1511,VALID,0,VALID,25.9408,VALID,39,VALID,0.46875,
2009-05-01, 01:15:04,VALID,1003.93,VALID,0,VALID,89.1053,VALID,0,VALID,25.9408,VALID,15,VALID,0.648438,
2009-05-01, 01:16:04,VALID,1003.93,VALID,0,VALID,89.0824,VALID,0,VALID,26.0012,VALID,5,VALID,0.902344,
2009-05-01, 01:17:04,VALID,1003.89,VALID,0,VALID,88.9833,VALID,0,VALID,26.0012,VALID,345,VALID,0.827734,
2009-05-01, 01:18:04,VALID,1003.9,VALID,0,VALID,88.8765,VALID,0,VALID,25.9817,VALID,347,VALID,0.567187,
2009-05-01, 01:19:04,VALID,1003.89,VALID,0,VALID,88.9146,VALID,0,VALID,25.9622,VALID,350,VALID,0.41875,
2009-05-01, 01:20:04,VALID,1003.89,VALID,0,VALID,89.0061,VALID,0.100563,VALID,25.8434,VALID,33,VALID,0.697266,
2009-05-01, 01:21:04,VALID,1003.85,VALID,0,VALID,89.3876,VALID,0,VALID,25.785,VALID,31,VALID,0.578906,
2009-05-01, 01:22:04,VALID,1003.85,VALID,0,VALID,89.6241,VALID,0,VALID,25.746,VALID,11,VALID,0.617578,
2009-05-01, 01:23:04,VALID,1003.86,VALID,0,VALID,89.7233,VALID,0,VALID,25.709,VALID,24,VALID,0.75,
2009-05-01, 01:24:04,VALID,1003.85,VALID,0,VALID,89.975,VALID,0,VALID,25.6506,VALID,24,VALID,0.560547,
2009-05-01, 01:25:04,VALID,1003.83,VALID,0,VALID,90.1352,VALID,0,VALID,25.5727,VALID,16,VALID,0.525781,
2009-05-01, 01:26:04,VALID,1003.86,VALID,0,VALID,90.6769,VALID,0,VALID,25.5337,VALID,353,VALID,0.678906,
2009-05-01, 01:27:04,VALID,1003.83,VALID,0,VALID,90.9286,VALID,0,VALID,25.5727,VALID,18,VALID,1.43125,
2009-05-01, 01:28:04,VALID,1003.83,VALID,0,VALID,90.8371,VALID,0,VALID,25.5921,VALID,359,VALID,0.7125,
2009-05-01, 01:29:04,VALID,1003.81,VALID,0,VALID,90.8523,VALID,0,VALID,25.6097,VALID,2,VALID,0.655859,
2009-05-01, 01:30:04,VALID,1003.79,VALID,0,VALID,90.6082,VALID,0,VALID,25.67,VALID,358,VALID,0.626172,
2009-05-01, 01:31:04,VALID,1003.77,VALID,0,VALID,90.4785,VALID,0,VALID,25.67,VALID,358,VALID,0.198047,
2009-05-01, 01:32:04,VALID,1003.75,VALID,0,VALID,90.4175,VALID,0,VALID,25.6525,VALID,358,VALID,0.483984,
2009-05-01, 01:33:04,VALID,1003.74,VALID,0,VALID,90.5319,VALID,0,VALID,25.5921,VALID,358,VALID,0.273438,
2009-05-01, 01:34:04,VALID,1003.71,VALID,0,VALID,90.7074,VALID,0,VALID,25.6116,VALID,360,VALID,0.648047,
2009-05-01, 01:35:04,VALID,1003.69,VALID,0,VALID,90.7226,VALID,0,VALID,25.6116,VALID,360,VALID,0.203516,
2009-05-01, 01:36:04,VALID,1003.69,VALID,0,VALID,90.7074,VALID,0,VALID,25.5921,VALID,13,VALID,0.65625,
2009-05-01, 01:37:04,VALID,1003.71,VALID,0,VALID,90.7684,VALID,0,VALID,25.5337,VALID,14,VALID,0.398828,
2009-05-01, 01:38:04,VALID,1003.71,VALID,0,VALID,90.8981,VALID,0,VALID,25.5337,VALID,14,VALID,0.339453,
2009-05-01, 01:39:04,VALID,1003.7,VALID,0,VALID,90.9057,VALID,0,VALID,25.4928,VALID,23,VALID,0.405469,
2009-05-01, 01:40:04,VALID,1003.7,VALID,0,VALID,90.982,VALID,0,VALID,25.4753,VALID,23,VALID,0.271875,
2009-05-01, 01:41:04,VALID,1003.69,VALID,0,VALID,91.0583,VALID,0,VALID,25.4149,VALID,23,VALID,0.546484,
2009-05-01, 01:42:04,VALID,1003.67,VALID,0,VALID,91.2796,VALID,0,VALID,25.4363,VALID,23,VALID,0.0191406,
2009-05-01, 01:43:04,VALID,1003.67,VALID,0,VALID,91.5618,VALID,0,VALID,25.4539,VALID,28,VALID,0.975781,
2009-05-01, 01:44:04,VALID,1003.67,VALID,0,VALID,91.4626,VALID,0,VALID,25.5337,VALID,47,VALID,0.444531,
2009-05-01, 01:45:04,VALID,1003.66,VALID,0,VALID,91.2567,VALID,0,VALID,25.5532,VALID,50,VALID,0.248437,
2009-05-01, 01:46:04,VALID,1003.67,VALID,0,VALID,91.2719,VALID,0,VALID,25.5727,VALID,46,VALID,0.408984,
2009-05-01, 01:47:04,VALID,1003.67,VALID,0,VALID,91.1651,VALID,0,VALID,25.6116,VALID,40,VALID,0.378516,
2009-05-01, 01:48:04,VALID,1003.67,VALID,0,VALID,91.1651,VALID,0,VALID,25.6895,VALID,70,VALID,1.80664,
2009-05-01, 01:49:04,VALID,1003.7,VALID,0,VALID,90.6998,VALID,0,VALID,25.8453,VALID,76,VALID,0.329297,
2009-05-01, 01:50:04,VALID,1003.71,VALID,0,VALID,90.1429,VALID,0,VALID,25.9232,VALID,76,VALID,0.233594,
2009-05-01, 01:51:04,VALID,1003.69,VALID,0,VALID,89.7614,VALID,0,VALID,25.9817,VALID,76,VALID,0.09375,
2009-05-01, 01:52:04,VALID,1003.68,VALID,0,VALID,89.5097,VALID,0,VALID,26.0012,VALID,72,VALID,0.280469,
2009-05-01, 01:53:04,VALID,1003.69,VALID,0,VALID,89.3494,VALID,0,VALID,25.9992,VALID,72,VALID,0.283984,
2009-05-01, 01:54:04,VALID,1003.65,VALID,0,VALID,89.2045,VALID,0,VALID,26.0206,VALID,19,VALID,0.883984,
2009-05-01, 01:55:04,VALID,1003.7,VALID,0,VALID,89.2274,VALID,0,VALID,26.0206,VALID,69,VALID,0.311719,
2009-05-01, 01:56:04,VALID,1003.68,VALID,0,VALID,89.1206,VALID,0,VALID,26.0206,VALID,54,VALID,1.2918,
2009-05-01, 01:57:04,VALID,1003.7,VALID,0,VALID,88.9299,VALID,0,VALID,26.0791,VALID,81,VALID,0.471875,
2009-05-01, 01:58:04,VALID,1003.73,VALID,0,VALID,88.7086,VALID,0,VALID,26.0985,VALID,79,VALID,0.421875,
2009-05-01, 01:59:04,VALID,1003.75,VALID,0,VALID,88.5408,VALID,0,VALID,26.1355,VALID,57,VALID,0.707031,
2009-05-01, 02:00:04,VALID,1003.75,VALID,0,VALID,88.2967,VALID,0,VALID,26.1765,VALID,60,VALID,0.471875,
2009-05-01, 02:01:04,VALID,1003.75,VALID,0,VALID,88.1899,VALID,0,VALID,26.2154,VALID,50,VALID,0.426953,
2009-05-01, 02:02:04,VALID,1003.72,VALID,0,VALID,87.9762,VALID,0,VALID,26.2154,VALID,31,VALID,0.602344,
2009-05-01, 02:03:04,VALID,1003.71,VALID,0,VALID,87.9,VALID,0,VALID,26.2154,VALID,87,VALID,0.244531,
2009-05-01, 02:04:04,VALID,1003.72,VALID,0,VALID,87.9,VALID,0,VALID,26.2154,VALID,72,VALID,0.695703,
2009-05-01, 02:05:04,VALID,1003.73,VALID,0,VALID,87.9076,VALID,0,VALID,26.1765,VALID,73,VALID,0.615234,
2009-05-01, 02:06:04,VALID,1003.74,VALID,0,VALID,87.9686,VALID,0,VALID,26.1355,VALID,75,VALID,0.513281,
2009-05-01, 02:07:04,VALID,1003.74,VALID,0,VALID,88.0983,VALID,0,VALID,26.1355,VALID,79,VALID,0.764063,
2009-05-01, 02:08:04,VALID,1003.72,VALID,0,VALID,88.1288,VALID,0,VALID,26.116,VALID,91,VALID,1.34844,
2009-05-01, 02:09:04,VALID,1003.73,VALID,0,VALID,88.1136,VALID,0,VALID,26.116,VALID,107,VALID,0.888281,
2009-05-01, 02:10:04,VALID,1003.74,VALID,0,VALID,88.1517,VALID,0,VALID,26.157,VALID,42,VALID,0.430469,
2009-05-01, 02:11:04,VALID,1003.72,VALID,0,VALID,88.167,VALID,0,VALID,26.0985,VALID,55,VALID,0.377734,
2009-05-01, 02:12:04,VALID,1003.71,VALID,0,VALID,88.2738,VALID,0,VALID,26.0791,VALID,96,VALID,0.588672,
2009-05-01, 02:13:04,VALID,1003.67,VALID,0,VALID,88.434,VALID,0,VALID,26.0381,VALID,95,VALID,0.410547,
2009-05-01, 02:14:04,VALID,1003.66,VALID,0,VALID,88.5408,VALID,0,VALID,26.0187,VALID,79,VALID,0.457422,
2009-05-01, 02:15:04,VALID,1003.67,VALID,0,VALID,88.64,VALID,0,VALID,26.0012,VALID,61,VALID,0.403516,
2009-05-01, 02:16:04,VALID,1003.66,VALID,0,VALID,88.7391,VALID,0,VALID,26.0012,VALID,85,VALID,0.526953,
2009-05-01, 02:17:04,VALID,1003.64,VALID,0,VALID,88.8307,VALID,0,VALID,25.9602,VALID,105,VALID,0.853125,
2009-05-01, 02:18:04,VALID,1003.67,VALID,0,VALID,88.968,VALID,0,VALID,25.9622,VALID,87,VALID,0.895312,
2009-05-01, 02:19:04,VALID,1003.69,VALID,0,VALID,89.0214,VALID,0,VALID,25.9232,VALID,84,VALID,0.491406,
2009-05-01, 02:20:04,VALID,1003.7,VALID,0,VALID,89.1206,VALID,0,VALID,25.9038,VALID,90,VALID,0.642578,
2009-05-01, 02:21:04,VALID,1003.69,VALID,0,VALID,89.174,VALID,0,VALID,25.9038,VALID,45,VALID,0.498828,
2009-05-01, 02:22:04,VALID,1003.68,VALID,0,VALID,89.2045,VALID,0,VALID,25.8843,VALID,74,VALID,0.474609,
2009-05-01, 02:23:04,VALID,1003.66,VALID,0,VALID,89.2655,VALID,0,VALID,25.8843,VALID,79,VALID,0.526953,
2009-05-01, 02:24:04,VALID,1003.65,VALID,0,VALID,89.2503,VALID,0,VALID,25.8843,VALID,78,VALID,0.2,
2009-05-01, 02:25:04,VALID,1003.67,VALID,0,VALID,89.3647,VALID,0,VALID,25.8453,VALID,24,VALID,0.521094,
2009-05-01, 02:26:04,VALID,1003.62,VALID,0,VALID,89.4944,VALID,0,VALID,25.8843,VALID,52,VALID,0.744141,
2009-05-01, 02:27:04,VALID,1003.61,VALID,0,VALID,89.4639,VALID,0,VALID,25.8434,VALID,30,VALID,0.173438,
2009-05-01, 02:28:04,VALID,1003.61,VALID,0,VALID,89.4334,VALID,0,VALID,25.8453,VALID,30,VALID,0.227344,
2009-05-01, 02:29:04,VALID,1003.61,VALID,0,VALID,89.4639,VALID,0,VALID,25.8239,VALID,69,VALID,0.382813,
2009-05-01, 02:30:04,VALID,1003.61,VALID,0,VALID,89.5173,VALID,0,VALID,25.8648,VALID,77,VALID,0.786719,
2009-05-01, 02:31:04,VALID,1003.61,VALID,0,VALID,89.5097,VALID,0,VALID,25.9038,VALID,106,VALID,0.958203,
2009-05-01, 02:32:04,VALID,1003.6,VALID,0,VALID,89.2503,VALID,0,VALID,25.9622,VALID,90,VALID,0.74375,
2009-05-01, 02:33:04,VALID,1003.6,VALID,0,VALID,89.0672,VALID,0,VALID,25.9817,VALID,93,VALID,0.398047,
2009-05-01, 02:34:04,VALID,1003.57,VALID,0,VALID,89.0061,VALID,0,VALID,25.9602,VALID,17,VALID,0.969141,
2009-05-01, 02:35:04,VALID,1003.57,VALID,0,VALID,88.9146,VALID,0,VALID,25.9797,VALID,59,VALID,0.737109,
2009-05-01, 02:36:04,VALID,1003.56,VALID,0,VALID,88.8459,VALID,0,VALID,26.0012,VALID,3,VALID,0.816016,
2009-05-01, 02:37:04,VALID,1003.57,VALID,0,VALID,88.8993,VALID,0,VALID,25.9427,VALID,358,VALID,0.382422,
2009-05-01, 02:38:04,VALID,1003.54,VALID,0,VALID,88.9375,VALID,0,VALID,25.9232,VALID,360,VALID,0.467969,
2009-05-01, 02:39:04,VALID,1003.56,VALID,0,VALID,88.9299,VALID,0,VALID,25.9232,VALID,15,VALID,0.732031,
2009-05-01, 02:40:04,VALID,1003.56,VALID,0,VALID,88.9527,VALID,0,VALID,25.8843,VALID,360,VALID,0.5875,
2009-05-01, 02:41:04,VALID,1003.54,VALID,0,VALID,89.0443,VALID,0,VALID,25.8629,VALID,17,VALID,0.692969,
2009-05-01, 02:42:04,VALID,1003.57,VALID,0,VALID,89.0519,VALID,0,VALID,25.8648,VALID,32,VALID,0.453516,
2009-05-01, 02:43:04,VALID,1003.54,VALID,0,VALID,89.1206,VALID,0,VALID,25.8648,VALID,33,VALID,0.907031,
2009-05-01, 02:44:04,VALID,1003.53,VALID,0,VALID,89.0977,VALID,0,VALID,25.8453,VALID,20,VALID,0.779297,
2009-05-01, 02:45:04,VALID,1003.55,VALID,0,VALID,89.0367,VALID,0,VALID,25.8453,VALID,34,VALID,0.576953,
2009-05-01, 02:46:04,VALID,1003.54,VALID,0,VALID,88.9527,VALID,0,VALID,25.8434,VALID,39,VALID,0.915625,
2009-05-01, 02:47:04,VALID,1003.54,VALID,0,VALID,88.6934,VALID,0,VALID,25.9232,VALID,54,VALID,0.664453,
2009-05-01, 02:48:04,VALID,1003.56,VALID,0,VALID,88.3958,VALID,0,VALID,26.0031,VALID,45,VALID,0.633594,
2009-05-01, 02:49:04,VALID,1003.56,VALID,0,VALID,88.1365,VALID,0,VALID,25.9817,VALID,11,VALID,0.874219,
2009-05-01, 02:50:04,VALID,1003.54,VALID,0,VALID,87.7855,VALID,0,VALID,26.0401,VALID,58,VALID,1.00859,
2009-05-01, 02:51:04,VALID,1003.53,VALID,0,VALID,87.5643,VALID,0,VALID,26.0771,VALID,24,VALID,0.937891,
2009-05-01, 02:52:04,VALID,1003.52,VALID,0,VALID,87.4422,VALID,0,VALID,26.0985,VALID,58,VALID,0.448438,
2009-05-01, 02:53:04,VALID,1003.53,VALID,0,VALID,87.4041,VALID,0,VALID,26.0771,VALID,80,VALID,0.782812,
2009-05-01, 02:54:04,VALID,1003.52,VALID,0,VALID,87.4727,VALID,0,VALID,26.0791,VALID,35,VALID,0.796094,
2009-05-01, 02:55:04,VALID,1003.52,VALID,0,VALID,87.5414,VALID,0,VALID,26.1005,VALID,87,VALID,0.957812,
2009-05-01, 02:56:04,VALID,1003.54,VALID,0,VALID,87.5109,VALID,0,VALID,26.0985,VALID,82,VALID,1.19141,
2009-05-01, 02:57:04,VALID,1003.55,VALID,0,VALID,87.3736,VALID,0,VALID,26.1355,VALID,97,VALID,1.71836,
2009-05-01, 02:58:04,VALID,1003.53,VALID,0,VALID,87.2362,VALID,0,VALID,26.1765,VALID,68,VALID,0.961719,
2009-05-01, 02:59:04,VALID,1003.52,VALID,0,VALID,87.1676,VALID,0,VALID,26.116,VALID,92,VALID,1.07656,
2009-05-01, 03:00:04,VALID,1003.5,VALID,0,VALID,87.1371,VALID,0,VALID,26.118,VALID,41,VALID,0.995703,
2009-05-01, 03:01:04,VALID,1003.5,VALID,0,VALID,87.1447,VALID,0,VALID,26.0771,VALID,55,VALID,0.517187,
2009-05-01, 03:02:04,VALID,1003.5,VALID,0,VALID,87.2362,VALID,0,VALID,26.0596,VALID,45,VALID,0.49375,
2009-05-01, 03:03:04,VALID,1003.49,VALID,0,VALID,87.2973,VALID,0,VALID,26.0401,VALID,85,VALID,0.426953,
2009-05-01, 03:04:04,VALID,1003.48,VALID,0,VALID,87.3659,VALID,0,VALID,25.9602,VALID,22,VALID,1.0668,
2009-05-01, 03:05:05,VALID,1003.49,VALID,0,VALID,87.4575,VALID,0,VALID,25.9408,VALID,55,VALID,0.692969,
2009-05-01, 03:06:05,VALID,1003.5,VALID,0,VALID,87.4041,VALID,0.100563,VALID,25.9817,VALID,56,VALID,0.910547,
2009-05-01, 03:07:05,VALID,1003.49,VALID,0,VALID,87.3354,VALID,0,VALID,25.9602,VALID,61,VALID,0.588281,
2009-05-01, 03:08:05,VALID,1003.45,VALID,0,VALID,87.4117,VALID,0,VALID,25.9408,VALID,82,VALID,0.666797,
2009-05-01, 03:09:05,VALID,1003.48,VALID,0,VALID,87.3125,VALID,0.100563,VALID,25.9018,VALID,51,VALID,0.522266,
2009-05-01, 03:10:05,VALID,1003.46,VALID,0,VALID,87.3202,VALID,0.100563,VALID,25.9018,VALID,50,VALID,0.345313,
2009-05-01, 03:11:05,VALID,1003.46,VALID,0,VALID,87.488,VALID,0,VALID,25.8823,VALID,33,VALID,0.561719,
2009-05-01, 03:12:05,VALID,1003.49,VALID,0,VALID,87.5338,VALID,0.100563,VALID,25.8434,VALID,57,VALID,0.638281,
2009-05-01, 03:13:05,VALID,1003.47,VALID,0,VALID,87.1066,VALID,0,VALID,25.8434,VALID,42,VALID,1.25703,
2009-05-01, 03:14:05,VALID,1003.5,VALID,0,VALID,86.9769,VALID,0,VALID,25.8629,VALID,52,VALID,0.680078,
2009-05-01, 03:15:05,VALID,1003.5,VALID,0,VALID,86.809,VALID,0,VALID,25.8629,VALID,33,VALID,1.22695,
2009-05-01, 03:16:05,VALID,1003.49,VALID,0,VALID,86.8014,VALID,0.100563,VALID,25.8823,VALID,75,VALID,0.563281,
2009-05-01, 03:17:05,VALID,1003.49,VALID,0,VALID,86.7327,VALID,0,VALID,25.9038,VALID,84,VALID,1.40352,
2009-05-01, 03:18:05,VALID,1003.53,VALID,0,VALID,86.7175,VALID,0,VALID,25.8823,VALID,24,VALID,0.769531,
2009-05-01, 03:19:05,VALID,1003.46,VALID,0,VALID,86.6793,VALID,0,VALID,25.8843,VALID,97,VALID,1.41836,
2009-05-01, 03:20:05,VALID,1003.49,VALID,0,VALID,86.6793,VALID,0,VALID,25.8843,VALID,79,VALID,0.678906,
2009-05-01, 03:21:05,VALID,1003.51,VALID,0,VALID,86.7327,VALID,0,VALID,25.8648,VALID,75,VALID,0.803906,
2009-05-01, 03:22:05,VALID,1003.49,VALID,0,VALID,86.8014,VALID,0,VALID,25.8453,VALID,82,VALID,1.80313,
2009-05-01, 03:23:05,VALID,1003.47,VALID,0,VALID,86.6565,VALID,0,VALID,25.8648,VALID,70,VALID,1.03594,
2009-05-01, 03:24:05,VALID,1003.48,VALID,0,VALID,86.6946,VALID,0,VALID,25.8453,VALID,33,VALID,1.23281,
2009-05-01, 03:25:05,VALID,1003.51,VALID,0,VALID,86.6717,VALID,0,VALID,25.8044,VALID,87,VALID,0.9,
2009-05-01, 03:26:05,VALID,1003.5,VALID,0,VALID,86.7785,VALID,0,VALID,25.785,VALID,74,VALID,0.545703,
2009-05-01, 03:27:05,VALID,1003.53,VALID,0,VALID,86.8395,VALID,0,VALID,25.7869,VALID,87,VALID,0.824609,
2009-05-01, 03:28:05,VALID,1003.55,VALID,0,VALID,86.8777,VALID,0,VALID,25.7869,VALID,62,VALID,0.742578,
2009-05-01, 03:29:05,VALID,1003.53,VALID,0,VALID,86.7785,VALID,0,VALID,25.7674,VALID,53,VALID,0.874609,
2009-05-01, 03:30:05,VALID,1003.55,VALID,0,VALID,86.6946,VALID,0,VALID,25.748,VALID,75,VALID,0.815625,
2009-05-01, 03:31:05,VALID,1003.52,VALID,0,VALID,86.7633,VALID,0,VALID,25.7674,VALID,92,VALID,0.290234,
2009-05-01, 03:32:05,VALID,1003.55,VALID,0,VALID,86.4962,VALID,0,VALID,25.748,VALID,83,VALID,0.679297,
2009-05-01, 03:33:05,VALID,1003.53,VALID,0,VALID,85.9317,VALID,0,VALID,25.709,VALID,72,VALID,1.11016,
2009-05-01, 03:34:05,VALID,1003.54,VALID,0,VALID,85.6189,VALID,0,VALID,25.7285,VALID,86,VALID,0.667188,
2009-05-01, 03:35:05,VALID,1003.51,VALID,0,VALID,85.5579,VALID,0,VALID,25.7285,VALID,96,VALID,0.517578,
2009-05-01, 03:36:05,VALID,1003.51,VALID,0,VALID,85.268,VALID,0,VALID,25.7285,VALID,82,VALID,0.721484,
2009-05-01, 03:37:05,VALID,1003.52,VALID,0,VALID,85.3595,VALID,0,VALID,25.709,VALID,86,VALID,0.419922,
2009-05-01, 03:38:05,VALID,1003.53,VALID,0,VALID,84.7874,VALID,0,VALID,25.709,VALID,93,VALID,0.812109,
2009-05-01, 03:39:05,VALID,1003.53,VALID,0,VALID,84.8332,VALID,0,VALID,25.748,VALID,84,VALID,0.48125,
2009-05-01, 03:40:05,VALID,1003.54,VALID,0,VALID,84.9781,VALID,0,VALID,25.709,VALID,84,VALID,0.193359,
2009-05-01, 03:41:05,VALID,1003.58,VALID,0,VALID,84.6729,VALID,0,VALID,25.67,VALID,84,VALID,0.341016,
2009-05-01, 03:42:05,VALID,1003.57,VALID,0,VALID,84.5509,VALID,0,VALID,25.6292,VALID,51,VALID,0.589844,
2009-05-01, 03:43:05,VALID,1003.58,VALID,0,VALID,84.3907,VALID,0,VALID,25.67,VALID,41,VALID,0.469922,
2009-05-01, 03:44:05,VALID,1003.59,VALID,0,VALID,84.4288,VALID,0,VALID,25.67,VALID,41,VALID,0.221094,
2009-05-01, 03:45:05,VALID,1003.6,VALID,0,VALID,84.5051,VALID,0,VALID,25.6506,VALID,41,VALID,0.103125,
2009-05-01, 03:46:05,VALID,1003.58,VALID,0,VALID,84.9247,VALID,0,VALID,25.6116,VALID,41,VALID,0,